LUCH (OLYMP-K 1)

Last updated on Sat Jun 21 2025 00:02:44 GMT+0000 (Coordinated Universal Time)

1 40258U 14058A 25171.79706830 .00000165 00000+0 00000+0 0 9993 2 40258 0.9590 87.2369 0001803 24.3252 112.0213 1.00434454 39310
UTC large
Height (km)
Speed (km/s)
/
Latitude / Longitude
Inclination (degrees)
Orbital Period (minutes)
Azimuth
Elevation
Range (km)
Doppler Factor

Next 0 passes for location: London (51.5072 / 0.1276)

Sorry there are no passes over London.